owner,sensor,date,latitude,longitude,vertical_datum,sea_water_temperature,qcFlag
Anadarko,ioos:station:wmo:42379:1,2022-01-01T00:02:00Z,27.3620,-90.1810,47.2,15.6,11111222
Anadarko,ioos:station:wmo:42379:1,2022-01-01T00:21:00Z,27.3620,-90.1810,47.2,15.6,11111222
Anadarko,ioos:station:wmo:42379:1,2022-01-01T00:41:00Z,27.3620,-90.1810,47.2,15.6,11111222
Anadarko,ioos:station:wmo:42379:1,2022-01-01T01:01:00Z,27.3620,-90.1810,47.2,15.6,11111222
Anadarko,ioos:station:wmo:42379:1,2022-01-01T01:21:00Z,27.3620,-90.1810,47.2,15.6,11111222
Anadarko,ioos:station:wmo:42379:1,2022-01-01T01:41:00Z,27.3620,-90.1810,47.2,15.6,11111222
Anadarko,ioos:station:wmo:42379:1,2022-01-01T02:01:00Z,27.3620,-90.1810,47.2,15.6,11111222
Anadarko,ioos:station:wmo:42379:1,2022-01-01T02:21:00Z,27.3620,-90.1810,47.2,15.6,11111222
Anadarko,ioos:station:wmo:42379:1,2022-01-01T02:41:00Z,27.3620,-90.1810,47.2,15.6,11111222
Anadarko,ioos:station:wmo:42379:1,2022-01-01T03:01:00Z,27.3620,-90.1810,47.2,15.6,11111222
Anadarko,ioos:station:wmo:42379:1,2022-01-01T03:21:00Z,27.3620,-90.1810,47.2,15.6,11111222
Anadarko,ioos:station:wmo:42379:1,2022-01-01T03:41:00Z,27.3620,-90.1810,47.2,15.6,11111222
Anadarko,ioos:station:wmo:42379:1,2022-01-01T04:01:00Z,27.3620,-90.1810,47.2,15.6,11111222
Anadarko,ioos:station:wmo:42379:1,2022-01-01T04:21:00Z,27.3620,-90.1810,47.2,15.6,11111222
Anadarko,ioos:station:wmo:42379:1,2022-01-01T04:41:00Z,27.3620,-90.1810,47.2,15.6,11111222
Anadarko,ioos:station:wmo:42379:1,2022-01-01T05:00:00Z,27.3620,-90.1810,47.2,15.6,11111222
Anadarko,ioos:station:wmo:42379:1,2022-01-01T05:20:00Z,27.3620,-90.1810,47.2,15.6,11111222
Anadarko,ioos:station:wmo:42379:1,2022-01-01T05:40:00Z,27.3620,-90.1810,47.2,15.6,11111222
Anadarko,ioos:station:wmo:42379:1,2022-01-01T06:00:00Z,27.3620,-90.1810,47.2,15.6,11111222
Anadarko,ioos:station:wmo:42379:1,2022-01-01T06:20:00Z,27.3620,-90.1810,47.2,15.6,11111222
Anadarko,ioos:station:wmo:42379:1,2022-01-01T06:40:00Z,27.3620,-90.1810,47.2,15.6,11111222
Anadarko,ioos:station:wmo:42379:1,2022-01-01T07:00:00Z,27.3620,-90.1810,47.2,15.6,11111222
Anadarko,ioos:station:wmo:42379:1,2022-01-01T07:20:00Z,27.3620,-90.1810,47.2,15.7,11111222
Anadarko,ioos:station:wmo:42379:1,2022-01-01T07:40:00Z,27.3620,-90.1810,47.2,15.6,11111222
Anadarko,ioos:station:wmo:42379:1,2022-01-01T08:00:00Z,27.3620,-90.1810,47.2,15.6,11111222
Anadarko,ioos:station:wmo:42379:1,2022-01-01T08:20:00Z,27.3620,-90.1810,47.2,15.6,11111222
Anadarko,ioos:station:wmo:42379:1,2022-01-01T08:40:00Z,27.3620,-90.1810,47.2,15.6,11111222
Anadarko,ioos:station:wmo:42379:1,2022-01-01T09:00:00Z,27.3620,-90.1810,47.2,15.8,11111222
Anadarko,ioos:station:wmo:42379:1,2022-01-01T09:20:00Z,27.3620,-90.1810,47.2,15.8,11111222
Anadarko,ioos:station:wmo:42379:1,2022-01-01T09:40:00Z,27.3620,-90.1810,47.2,15.8,11111222
Anadarko,ioos:station:wmo:42379:1,2022-01-01T10:00:00Z,27.3620,-90.1810,47.2,15.8,11111222
Anadarko,ioos:station:wmo:42379:1,2022-01-01T10:20:00Z,27.3620,-90.1810,47.2,15.8,11111222
Anadarko,ioos:station:wmo:42379:1,2022-01-01T10:40:00Z,27.3620,-90.1810,47.2,15.8,11111222
Anadarko,ioos:station:wmo:42379:1,2022-01-01T11:00:00Z,27.3620,-90.1810,47.2,15.7,11111222
Anadarko,ioos:station:wmo:42379:1,2022-01-01T11:20:00Z,27.3620,-90.1810,47.2,15.7,11111222
Anadarko,ioos:station:wmo:42379:1,2022-01-01T11:40:00Z,27.3620,-90.1810,47.2,15.7,11111222
Anadarko,ioos:station:wmo:42379:1,2022-01-01T12:00:00Z,27.3620,-90.1810,47.2,15.7,11111222
Anadarko,ioos:station:wmo:42379:1,2022-01-01T12:19:00Z,27.3620,-90.1810,47.2,15.7,11111222
Anadarko,ioos:station:wmo:42379:1,2022-01-01T12:39:00Z,27.3620,-90.1810,47.2,15.6,11111222
Anadarko,ioos:station:wmo:42379:1,2022-01-01T12:59:00Z,27.3620,-90.1810,47.2,15.6,11111222
Anadarko,ioos:station:wmo:42379:1,2022-01-01T13:19:00Z,27.3620,-90.1810,47.2,15.6,11111222
Anadarko,ioos:station:wmo:42379:1,2022-01-01T13:39:00Z,27.3620,-90.1810,47.2,15.6,11111222
Anadarko,ioos:station:wmo:42379:1,2022-01-01T13:59:00Z,27.3620,-90.1810,47.2,15.6,11111222
Anadarko,ioos:station:wmo:42379:1,2022-01-01T14:19:00Z,27.3620,-90.1810,47.2,15.6,11111222
Anadarko,ioos:station:wmo:42379:1,2022-01-01T14:39:00Z,27.3620,-90.1810,47.2,15.6,11111222
Anadarko,ioos:station:wmo:42379:1,2022-01-01T14:59:00Z,27.3620,-90.1810,47.2,15.6,11111222
Anadarko,ioos:station:wmo:42379:1,2022-01-01T15:19:00Z,27.3620,-90.1810,47.2,15.6,11111222
Anadarko,ioos:station:wmo:42379:1,2022-01-01T15:39:00Z,27.3620,-90.1810,47.2,15.6,11111222
Anadarko,ioos:station:wmo:42379:1,2022-01-01T15:59:00Z,27.3620,-90.1810,47.2,15.6,11111222
Anadarko,ioos:station:wmo:42379:1,2022-01-01T16:19:00Z,27.3620,-90.1810,47.2,15.6,11111222
Anadarko,ioos:station:wmo:42379:1,2022-01-01T16:39:00Z,27.3620,-90.1810,47.2,15.6,11111222
Anadarko,ioos:station:wmo:42379:1,2022-01-01T16:59:00Z,27.3620,-90.1810,47.2,15.6,11111222
Anadarko,ioos:station:wmo:42379:1,2022-01-01T17:19:00Z,27.3620,-90.1810,47.2,15.6,11111222
Anadarko,ioos:station:wmo:42379:1,2022-01-01T17:38:00Z,27.3620,-90.1810,47.2,15.6,11111222
Anadarko,ioos:station:wmo:42379:1,2022-01-01T17:58:00Z,27.3620,-90.1810,47.2,15.6,11111222
Anadarko,ioos:station:wmo:42379:1,2022-01-01T18:18:00Z,27.3620,-90.1810,47.2,15.6,11111222
Anadarko,ioos:station:wmo:42379:1,2022-01-01T18:38:00Z,27.3620,-90.1810,47.2,15.6,11111222
Anadarko,ioos:station:wmo:42379:1,2022-01-01T18:58:00Z,27.3620,-90.1810,47.2,15.6,11111222
Anadarko,ioos:station:wmo:42379:1,2022-01-01T19:18:00Z,27.3620,-90.1810,47.2,15.7,11111222
Anadarko,ioos:station:wmo:42379:1,2022-01-01T19:38:00Z,27.3620,-90.1810,47.2,15.6,11111222
Anadarko,ioos:station:wmo:42379:1,2022-01-01T19:58:00Z,27.3620,-90.1810,47.2,15.7,11111222
Anadarko,ioos:station:wmo:42379:1,2022-01-01T20:18:00Z,27.3620,-90.1810,47.2,15.7,11111222
Anadarko,ioos:station:wmo:42379:1,2022-01-01T20:37:00Z,27.3620,-90.1810,47.2,15.8,11111222
Anadarko,ioos:station:wmo:42379:1,2022-01-01T20:56:00Z,27.3620,-90.1810,47.2,15.8,11111222
Anadarko,ioos:station:wmo:42379:1,2022-01-01T21:15:00Z,27.3620,-90.1810,47.2,15.8,11111222
Anadarko,ioos:station:wmo:42379:1,2022-01-01T21:35:00Z,27.3620,-90.1810,47.2,15.8,11111222
Anadarko,ioos:station:wmo:42379:1,2022-01-01T21:55:00Z,27.3620,-90.1810,47.2,15.9,11111222
Anadarko,ioos:station:wmo:42379:1,2022-01-01T22:15:00Z,27.3620,-90.1810,47.2,15.9,11111222
Anadarko,ioos:station:wmo:42379:1,2022-01-01T22:35:00Z,27.3620,-90.1810,47.2,15.9,11111222
Anadarko,ioos:station:wmo:42379:1,2022-01-01T22:55:00Z,27.3620,-90.1810,47.2,15.9,11111222
Anadarko,ioos:station:wmo:42379:1,2022-01-01T23:14:00Z,27.3620,-90.1810,47.2,16.0,11111222
Anadarko,ioos:station:wmo:42379:1,2022-01-01T23:34:00Z,27.3620,-90.1810,47.2,16.0,11111222
Anadarko,ioos:station:wmo:42379:1,2022-01-01T23:54:00Z,27.3620,-90.1810,47.2,15.9,11111222
Anadarko,ioos:station:wmo:42379:1,2022-01-02T00:14:00Z,27.3620,-90.1810,47.2,15.9,11111222
Anadarko,ioos:station:wmo:42379:1,2022-01-02T00:33:00Z,27.3620,-90.1810,47.2,15.9,11111222
Anadarko,ioos:station:wmo:42379:1,2022-01-02T00:53:00Z,27.3620,-90.1810,47.2,15.9,11111222
Anadarko,ioos:station:wmo:42379:1,2022-01-02T01:13:00Z,27.3620,-90.1810,47.2,15.8,11111222
Anadarko,ioos:station:wmo:42379:1,2022-01-02T01:33:00Z,27.3620,-90.1810,47.2,15.8,11111222
Anadarko,ioos:station:wmo:42379:1,2022-01-02T01:53:00Z,27.3620,-90.1810,47.2,15.8,11111222
Anadarko,ioos:station:wmo:42379:1,2022-01-02T02:13:00Z,27.3620,-90.1810,47.2,15.7,11111222
Anadarko,ioos:station:wmo:42379:1,2022-01-02T02:33:00Z,27.3620,-90.1810,47.2,15.7,11111222
Anadarko,ioos:station:wmo:42379:1,2022-01-02T02:53:00Z,27.3620,-90.1810,47.2,15.6,11111222
Anadarko,ioos:station:wmo:42379:1,2022-01-02T03:13:00Z,27.3620,-90.1810,47.2,15.6,11111222
Anadarko,ioos:station:wmo:42379:1,2022-01-02T03:33:00Z,27.3620,-90.1810,47.2,15.6,11111222
Anadarko,ioos:station:wmo:42379:1,2022-01-02T03:53:00Z,27.3620,-90.1810,47.2,15.6,11111222
Anadarko,ioos:station:wmo:42379:1,2022-01-02T04:13:00Z,27.3620,-90.1810,47.2,15.6,11111222
Anadarko,ioos:station:wmo:42379:1,2022-01-02T04:33:00Z,27.3620,-90.1810,47.2,15.6,11111222
Anadarko,ioos:station:wmo:42379:1,2022-01-02T04:53:00Z,27.3620,-90.1810,47.2,15.6,11111222
Anadarko,ioos:station:wmo:42379:1,2022-01-02T05:13:00Z,27.3620,-90.1810,47.2,15.6,11111222
Anadarko,ioos:station:wmo:42379:1,2022-01-02T05:33:00Z,27.3620,-90.1810,47.2,15.6,11111222
Anadarko,ioos:station:wmo:42379:1,2022-01-02T05:53:00Z,27.3620,-90.1810,47.2,15.6,11111222
Anadarko,ioos:station:wmo:42379:1,2022-01-02T06:13:00Z,27.3620,-90.1810,47.2,15.7,11111222
Anadarko,ioos:station:wmo:42379:1,2022-01-02T06:33:00Z,27.3620,-90.1810,47.2,15.8,11111222
Anadarko,ioos:station:wmo:42379:1,2022-01-02T06:53:00Z,27.3620,-90.1810,47.2,15.7,11111222
Anadarko,ioos:station:wmo:42379:1,2022-01-02T07:13:00Z,27.3620,-90.1810,47.2,15.7,11111222
Anadarko,ioos:station:wmo:42379:1,2022-01-02T07:33:00Z,27.3620,-90.1810,47.2,15.7,11111222
Anadarko,ioos:station:wmo:42379:1,2022-01-02T07:53:00Z,27.3620,-90.1810,47.2,15.8,11111222
Anadarko,ioos:station:wmo:42379:1,2022-01-02T08:13:00Z,27.3620,-90.1810,47.2,15.7,11111222
Anadarko,ioos:station:wmo:42379:1,2022-01-02T08:33:00Z,27.3620,-90.1810,47.2,15.8,11111222
Anadarko,ioos:station:wmo:42379:1,2022-01-02T08:53:00Z,27.3620,-90.1810,47.2,15.8,11111222
Anadarko,ioos:station:wmo:42379:1,2022-01-02T09:13:00Z,27.3620,-90.1810,47.2,15.7,11111222
Anadarko,ioos:station:wmo:42379:1,2022-01-02T09:33:00Z,27.3620,-90.1810,47.2,15.7,11111222
Anadarko,ioos:station:wmo:42379:1,2022-01-02T09:53:00Z,27.3620,-90.1810,47.2,15.7,11111222
Anadarko,ioos:station:wmo:42379:1,2022-01-02T10:13:00Z,27.3620,-90.1810,47.2,15.6,11111222
Anadarko,ioos:station:wmo:42379:1,2022-01-02T10:32:00Z,27.3620,-90.1810,47.2,15.6,11111222
Anadarko,ioos:station:wmo:42379:1,2022-01-02T10:51:00Z,27.3620,-90.1810,47.2,15.6,11111222
Anadarko,ioos:station:wmo:42379:1,2022-01-02T11:11:00Z,27.3620,-90.1810,47.2,15.6,11111222
Anadarko,ioos:station:wmo:42379:1,2022-01-02T11:31:00Z,27.3620,-90.1810,47.2,15.6,11111222
Anadarko,ioos:station:wmo:42379:1,2022-01-02T11:51:00Z,27.3620,-90.1810,47.2,15.7,11111222
Anadarko,ioos:station:wmo:42379:1,2022-01-02T12:10:00Z,27.3620,-90.1810,47.2,15.8,11111222
Anadarko,ioos:station:wmo:42379:1,2022-01-02T12:30:00Z,27.3620,-90.1810,47.2,15.8,11111222
Anadarko,ioos:station:wmo:42379:1,2022-01-02T12:50:00Z,27.3620,-90.1810,47.2,15.8,11111222
Anadarko,ioos:station:wmo:42379:1,2022-01-02T13:10:00Z,27.3620,-90.1810,47.2,15.8,11111222
Anadarko,ioos:station:wmo:42379:1,2022-01-02T13:30:00Z,27.3620,-90.1810,47.2,15.8,11111222
Anadarko,ioos:station:wmo:42379:1,2022-01-02T13:50:00Z,27.3620,-90.1810,47.2,15.8,11111222
Anadarko,ioos:station:wmo:42379:1,2022-01-02T14:10:00Z,27.3620,-90.1810,47.2,15.8,11111222
Anadarko,ioos:station:wmo:42379:1,2022-01-02T14:29:00Z,27.3620,-90.1810,47.2,15.8,11111222
Anadarko,ioos:station:wmo:42379:1,2022-01-02T14:49:00Z,27.3620,-90.1810,47.2,15.8,11111222
Anadarko,ioos:station:wmo:42379:1,2022-01-02T15:09:00Z,27.3620,-90.1810,47.2,15.8,11111222
Anadarko,ioos:station:wmo:42379:1,2022-01-02T15:29:00Z,27.3620,-90.1810,47.2,15.9,11111222
Anadarko,ioos:station:wmo:42379:1,2022-01-02T15:49:00Z,27.3620,-90.1810,47.2,15.9,11111222
Anadarko,ioos:station:wmo:42379:1,2022-01-02T16:09:00Z,27.3620,-90.1810,47.2,15.9,11111222
Anadarko,ioos:station:wmo:42379:1,2022-01-02T16:29:00Z,27.3620,-90.1810,47.2,15.9,11111222
Anadarko,ioos:station:wmo:42379:1,2022-01-02T16:49:00Z,27.3620,-90.1810,47.2,15.9,11111222
Anadarko,ioos:station:wmo:42379:1,2022-01-02T17:09:00Z,27.3620,-90.1810,47.2,15.9,11111222
Anadarko,ioos:station:wmo:42379:1,2022-01-02T17:29:00Z,27.3620,-90.1810,47.2,16.0,11111222
Anadarko,ioos:station:wmo:42379:1,2022-01-02T17:49:00Z,27.3620,-90.1810,47.2,16.0,11111222
Anadarko,ioos:station:wmo:42379:1,2022-01-02T18:09:00Z,27.3620,-90.1810,47.2,15.9,11111222
Anadarko,ioos:station:wmo:42379:1,2022-01-02T18:29:00Z,27.3620,-90.1810,47.2,16.0,11111222
Anadarko,ioos:station:wmo:42379:1,2022-01-02T18:49:00Z,27.3620,-90.1810,47.2,16.0,11111222
Anadarko,ioos:station:wmo:42379:1,2022-01-02T19:09:00Z,27.3620,-90.1810,47.2,16.0,11111222
Anadarko,ioos:station:wmo:42379:1,2022-01-02T19:29:00Z,27.3620,-90.1810,47.2,16.0,11111222
Anadarko,ioos:station:wmo:42379:1,2022-01-02T19:49:00Z,27.3620,-90.1810,47.2,16.0,11111222
Anadarko,ioos:station:wmo:42379:1,2022-01-02T20:09:00Z,27.3620,-90.1810,47.2,16.1,11111222
Anadarko,ioos:station:wmo:42379:1,2022-01-02T20:29:00Z,27.3620,-90.1810,47.2,16.0,11111222
Anadarko,ioos:station:wmo:42379:1,2022-01-02T20:49:00Z,27.3620,-90.1810,47.2,16.0,11111222
Anadarko,ioos:station:wmo:42379:1,2022-01-02T21:09:00Z,27.3620,-90.1810,47.2,16.1,11111222
Anadarko,ioos:station:wmo:42379:1,2022-01-02T21:29:00Z,27.3620,-90.1810,47.2,16.1,11111222
Anadarko,ioos:station:wmo:42379:1,2022-01-02T21:49:00Z,27.3620,-90.1810,47.2,16.0,11111222
Anadarko,ioos:station:wmo:42379:1,2022-01-02T22:09:00Z,27.3620,-90.1810,47.2,16.0,11111222
Anadarko,ioos:station:wmo:42379:1,2022-01-02T22:29:00Z,27.3620,-90.1810,47.2,16.0,11111222
Anadarko,ioos:station:wmo:42379:1,2022-01-02T22:49:00Z,27.3620,-90.1810,47.2,16.0,11111222
Anadarko,ioos:station:wmo:42379:1,2022-01-02T23:08:00Z,27.3620,-90.1810,47.2,16.0,11111222
Anadarko,ioos:station:wmo:42379:1,2022-01-02T23:28:00Z,27.3620,-90.1810,47.2,16.0,11111222
Anadarko,ioos:station:wmo:42379:1,2022-01-02T23:48:00Z,27.3620,-90.1810,47.2,15.9,11111222
Anadarko,ioos:station:wmo:42379:1,2022-01-03T00:07:00Z,27.3620,-90.1810,47.2,15.8,11111222
Anadarko,ioos:station:wmo:42379:1,2022-01-03T00:27:00Z,27.3620,-90.1810,47.2,15.6,11111222
Anadarko,ioos:station:wmo:42379:1,2022-01-03T00:47:00Z,27.3620,-90.1810,47.2,15.5,11111222
Anadarko,ioos:station:wmo:42379:1,2022-01-03T01:06:00Z,27.3620,-90.1810,47.2,15.5,11111222
Anadarko,ioos:station:wmo:42379:1,2022-01-03T01:26:00Z,27.3620,-90.1810,47.2,15.5,11111222
Anadarko,ioos:station:wmo:42379:1,2022-01-03T01:46:00Z,27.3620,-90.1810,47.2,15.5,11111222
Anadarko,ioos:station:wmo:42379:1,2022-01-03T02:05:00Z,27.3620,-90.1810,47.2,15.6,11111222
Anadarko,ioos:station:wmo:42379:1,2022-01-03T02:25:00Z,27.3620,-90.1810,47.2,15.6,11111222
Anadarko,ioos:station:wmo:42379:1,2022-01-03T02:45:00Z,27.3620,-90.1810,47.2,15.6,11111222
Anadarko,ioos:station:wmo:42379:1,2022-01-03T03:04:00Z,27.3620,-90.1810,47.2,15.6,11111222
Anadarko,ioos:station:wmo:42379:1,2022-01-03T03:23:00Z,27.3620,-90.1810,47.2,15.6,11111222
Anadarko,ioos:station:wmo:42379:1,2022-01-03T03:42:00Z,27.3620,-90.1810,47.2,15.6,11111222
Anadarko,ioos:station:wmo:42379:1,2022-01-03T04:01:00Z,27.3620,-90.1810,47.2,15.6,11111222
Anadarko,ioos:station:wmo:42379:1,2022-01-03T04:21:00Z,27.3620,-90.1810,47.2,15.5,11111222
Anadarko,ioos:station:wmo:42379:1,2022-01-03T04:41:00Z,27.3620,-90.1810,47.2,15.5,11111222
Anadarko,ioos:station:wmo:42379:1,2022-01-03T05:01:00Z,27.3620,-90.1810,47.2,15.5,11111222
Anadarko,ioos:station:wmo:42379:1,2022-01-03T05:21:00Z,27.3620,-90.1810,47.2,15.5,11111222
Anadarko,ioos:station:wmo:42379:1,2022-01-03T05:41:00Z,27.3620,-90.1810,47.2,15.4,11111222
Anadarko,ioos:station:wmo:42379:1,2022-01-03T06:01:00Z,27.3620,-90.1810,47.2,15.4,11111222
Anadarko,ioos:station:wmo:42379:1,2022-01-03T06:21:00Z,27.3620,-90.1810,47.2,15.4,11111222
Anadarko,ioos:station:wmo:42379:1,2022-01-03T06:40:00Z,27.3620,-90.1810,47.2,15.4,11111222
Anadarko,ioos:station:wmo:42379:1,2022-01-03T07:00:00Z,27.3620,-90.1810,47.2,15.4,11111222
Anadarko,ioos:station:wmo:42379:1,2022-01-03T07:20:00Z,27.3620,-90.1810,47.2,15.4,11111222
Anadarko,ioos:station:wmo:42379:1,2022-01-03T07:40:00Z,27.3620,-90.1810,47.2,15.4,11111222
Anadarko,ioos:station:wmo:42379:1,2022-01-03T07:59:00Z,27.3620,-90.1810,47.2,15.4,11111222
Anadarko,ioos:station:wmo:42379:1,2022-01-03T08:18:00Z,27.3620,-90.1810,47.2,15.4,11111222
Anadarko,ioos:station:wmo:42379:1,2022-01-03T08:38:00Z,27.3620,-90.1810,47.2,15.4,11111222
Anadarko,ioos:station:wmo:42379:1,2022-01-03T08:58:00Z,27.3620,-90.1810,47.2,15.3,11111222
Anadarko,ioos:station:wmo:42379:1,2022-01-03T09:18:00Z,27.3620,-90.1810,47.2,15.3,11111222
Anadarko,ioos:station:wmo:42379:1,2022-01-03T09:38:00Z,27.3620,-90.1810,47.2,15.3,11111222
Anadarko,ioos:station:wmo:42379:1,2022-01-03T09:58:00Z,27.3620,-90.1810,47.2,15.3,11111222
Anadarko,ioos:station:wmo:42379:1,2022-01-03T10:18:00Z,27.3620,-90.1810,47.2,15.3,11111222
Anadarko,ioos:station:wmo:42379:1,2022-01-03T10:38:00Z,27.3620,-90.1810,47.2,15.4,11111222
Anadarko,ioos:station:wmo:42379:1,2022-01-03T10:58:00Z,27.3620,-90.1810,47.2,15.4,11111222
Anadarko,ioos:station:wmo:42379:1,2022-01-03T11:18:00Z,27.3620,-90.1810,47.2,15.3,11111222
Anadarko,ioos:station:wmo:42379:1,2022-01-03T11:38:00Z,27.3620,-90.1810,47.2,15.3,11111222
Anadarko,ioos:station:wmo:42379:1,2022-01-03T11:57:00Z,27.3620,-90.1810,47.2,15.3,11111222
Anadarko,ioos:station:wmo:42379:1,2022-01-03T12:16:00Z,27.3620,-90.1810,47.2,15.3,11111222
Anadarko,ioos:station:wmo:42379:1,2022-01-03T12:36:00Z,27.3620,-90.1810,47.2,15.3,11111222
Anadarko,ioos:station:wmo:42379:1,2022-01-03T12:56:00Z,27.3620,-90.1810,47.2,15.3,11111222
Anadarko,ioos:station:wmo:42379:1,2022-01-03T13:16:00Z,27.3620,-90.1810,47.2,15.3,11111222
Anadarko,ioos:station:wmo:42379:1,2022-01-03T13:35:00Z,27.3620,-90.1810,47.2,15.3,11111222
Anadarko,ioos:station:wmo:42379:1,2022-01-03T13:55:00Z,27.3620,-90.1810,47.2,15.3,11111222
Anadarko,ioos:station:wmo:42379:1,2022-01-03T14:15:00Z,27.3620,-90.1810,47.2,15.3,11111222
Anadarko,ioos:station:wmo:42379:1,2022-01-03T14:35:00Z,27.3620,-90.1810,47.2,15.3,11111222
Anadarko,ioos:station:wmo:42379:1,2022-01-03T14:55:00Z,27.3620,-90.1810,47.2,15.3,11111222
Anadarko,ioos:station:wmo:42379:1,2022-01-03T15:15:00Z,27.3620,-90.1810,47.2,15.3,11111222
Anadarko,ioos:station:wmo:42379:1,2022-01-03T15:35:00Z,27.3620,-90.1810,47.2,15.3,11111222
Anadarko,ioos:station:wmo:42379:1,2022-01-03T15:55:00Z,27.3620,-90.1810,47.2,15.3,11111222
Anadarko,ioos:station:wmo:42379:1,2022-01-03T16:15:00Z,27.3620,-90.1810,47.2,15.3,11111222
Anadarko,ioos:station:wmo:42379:1,2022-01-03T16:35:00Z,27.3620,-90.1810,47.2,15.3,11111222
Anadarko,ioos:station:wmo:42379:1,2022-01-03T16:54:00Z,27.3620,-90.1810,47.2,15.3,11111222
Anadarko,ioos:station:wmo:42379:1,2022-01-03T17:14:00Z,27.3620,-90.1810,47.2,15.3,11111222
Anadarko,ioos:station:wmo:42379:1,2022-01-03T17:34:00Z,27.3620,-90.1810,47.2,15.3,11111222
Anadarko,ioos:station:wmo:42379:1,2022-01-03T17:54:00Z,27.3620,-90.1810,47.2,15.3,11111222
Anadarko,ioos:station:wmo:42379:1,2022-01-03T18:14:00Z,27.3620,-90.1810,47.2,15.3,11111222
Anadarko,ioos:station:wmo:42379:1,2022-01-03T18:34:00Z,27.3620,-90.1810,47.2,15.3,11111222
Anadarko,ioos:station:wmo:42379:1,2022-01-03T18:54:00Z,27.3620,-90.1810,47.2,15.3,11111222
Anadarko,ioos:station:wmo:42379:1,2022-01-03T19:14:00Z,27.3620,-90.1810,47.2,15.3,11111222
Anadarko,ioos:station:wmo:42379:1,2022-01-03T19:34:00Z,27.3620,-90.1810,47.2,15.3,11111222
Anadarko,ioos:station:wmo:42379:1,2022-01-03T19:54:00Z,27.3620,-90.1810,47.2,15.3,11111222
Anadarko,ioos:station:wmo:42379:1,2022-01-03T20:14:00Z,27.3620,-90.1810,47.2,15.3,11111222
Anadarko,ioos:station:wmo:42379:1,2022-01-03T20:34:00Z,27.3620,-90.1810,47.2,15.4,11111222
Anadarko,ioos:station:wmo:42379:1,2022-01-03T20:54:00Z,27.3620,-90.1810,47.2,15.4,11111222
Anadarko,ioos:station:wmo:42379:1,2022-01-03T21:14:00Z,27.3620,-90.1810,47.2,15.4,11111222
Anadarko,ioos:station:wmo:42379:1,2022-01-03T21:34:00Z,27.3620,-90.1810,47.2,15.4,11111222
Anadarko,ioos:station:wmo:42379:1,2022-01-03T21:54:00Z,27.3620,-90.1810,47.2,15.4,11111222
Anadarko,ioos:station:wmo:42379:1,2022-01-03T22:14:00Z,27.3620,-90.1810,47.2,15.4,11111222
Anadarko,ioos:station:wmo:42379:1,2022-01-03T22:34:00Z,27.3620,-90.1810,47.2,15.4,11111222
Anadarko,ioos:station:wmo:42379:1,2022-01-03T22:54:00Z,27.3620,-90.1810,47.2,15.4,11111222
Anadarko,ioos:station:wmo:42379:1,2022-01-03T23:13:00Z,27.3620,-90.1810,47.2,15.4,11111222
Anadarko,ioos:station:wmo:42379:1,2022-01-03T23:33:00Z,27.3620,-90.1810,47.2,15.5,11111222
Anadarko,ioos:station:wmo:42379:1,2022-01-03T23:52:00Z,27.3620,-90.1810,47.2,15.5,11111222
Anadarko,ioos:station:wmo:42379:1,2022-01-04T00:12:00Z,27.3620,-90.1810,47.2,15.5,11111222
Anadarko,ioos:station:wmo:42379:1,2022-01-04T00:32:00Z,27.3620,-90.1810,47.2,15.5,11111222
Anadarko,ioos:station:wmo:42379:1,2022-01-04T00:52:00Z,27.3620,-90.1810,47.2,15.5,11111222
Anadarko,ioos:station:wmo:42379:1,2022-01-04T01:12:00Z,27.3620,-90.1810,47.2,15.5,11111222
Anadarko,ioos:station:wmo:42379:1,2022-01-04T01:32:00Z,27.3620,-90.1810,47.2,15.5,11111222
Anadarko,ioos:station:wmo:42379:1,2022-01-04T01:52:00Z,27.3620,-90.1810,47.2,15.5,11111222
Anadarko,ioos:station:wmo:42379:1,2022-01-04T02:12:00Z,27.3620,-90.1810,47.2,15.5,11111222
Anadarko,ioos:station:wmo:42379:1,2022-01-04T02:32:00Z,27.3620,-90.1810,47.2,15.5,11111222
Anadarko,ioos:station:wmo:42379:1,2022-01-04T02:51:00Z,27.3620,-90.1810,47.2,15.4,11111222
Anadarko,ioos:station:wmo:42379:1,2022-01-04T03:11:00Z,27.3620,-90.1810,47.2,15.4,11111222
Anadarko,ioos:station:wmo:42379:1,2022-01-04T03:30:00Z,27.3620,-90.1810,47.2,15.4,11111222
Anadarko,ioos:station:wmo:42379:1,2022-01-04T03:50:00Z,27.3620,-90.1810,47.2,15.3,11111222
Anadarko,ioos:station:wmo:42379:1,2022-01-04T04:10:00Z,27.3620,-90.1810,47.2,15.3,11111222
Anadarko,ioos:station:wmo:42379:1,2022-01-04T04:30:00Z,27.3620,-90.1810,47.2,15.2,11111222
Anadarko,ioos:station:wmo:42379:1,2022-01-04T04:50:00Z,27.3620,-90.1810,47.2,15.2,11111222
Anadarko,ioos:station:wmo:42379:1,2022-01-04T05:10:00Z,27.3620,-90.1810,47.2,15.2,11111222
Anadarko,ioos:station:wmo:42379:1,2022-01-04T05:30:00Z,27.3620,-90.1810,47.2,15.2,11111222
Anadarko,ioos:station:wmo:42379:1,2022-01-04T05:50:00Z,27.3620,-90.1810,47.2,15.1,11111222
Anadarko,ioos:station:wmo:42379:1,2022-01-04T06:10:00Z,27.3620,-90.1810,47.2,15.1,11111222
Anadarko,ioos:station:wmo:42379:1,2022-01-04T06:30:00Z,27.3620,-90.1810,47.2,15.1,11111222
Anadarko,ioos:station:wmo:42379:1,2022-01-04T06:50:00Z,27.3620,-90.1810,47.2,15.2,11111222
Anadarko,ioos:station:wmo:42379:1,2022-01-04T07:10:00Z,27.3620,-90.1810,47.2,15.1,11111222
Anadarko,ioos:station:wmo:42379:1,2022-01-04T07:30:00Z,27.3620,-90.1810,47.2,15.1,11111222
Anadarko,ioos:station:wmo:42379:1,2022-01-04T07:50:00Z,27.3620,-90.1810,47.2,15.1,11111222
Anadarko,ioos:station:wmo:42379:1,2022-01-04T08:10:00Z,27.3620,-90.1810,47.2,15.1,11111222
Anadarko,ioos:station:wmo:42379:1,2022-01-04T08:30:00Z,27.3620,-90.1810,47.2,15.1,11111222
Anadarko,ioos:station:wmo:42379:1,2022-01-04T08:50:00Z,27.3620,-90.1810,47.2,15.1,11111222
Anadarko,ioos:station:wmo:42379:1,2022-01-04T09:10:00Z,27.3620,-90.1810,47.2,15.1,11111222
Anadarko,ioos:station:wmo:42379:1,2022-01-04T09:30:00Z,27.3620,-90.1810,47.2,15.1,11111222
Anadarko,ioos:station:wmo:42379:1,2022-01-04T09:50:00Z,27.3620,-90.1810,47.2,15.1,11111222
Anadarko,ioos:station:wmo:42379:1,2022-01-04T10:10:00Z,27.3620,-90.1810,47.2,15.1,11111222
Anadarko,ioos:station:wmo:42379:1,2022-01-04T10:30:00Z,27.3620,-90.1810,47.2,15.1,11111222
Anadarko,ioos:station:wmo:42379:1,2022-01-04T10:50:00Z,27.3620,-90.1810,47.2,15.1,11111222
Anadarko,ioos:station:wmo:42379:1,2022-01-04T11:10:00Z,27.3620,-90.1810,47.2,15.2,11111222
Anadarko,ioos:station:wmo:42379:1,2022-01-04T11:30:00Z,27.3620,-90.1810,47.2,15.2,11111222
Anadarko,ioos:station:wmo:42379:1,2022-01-04T11:50:00Z,27.3620,-90.1810,47.2,15.2,11111222
Anadarko,ioos:station:wmo:42379:1,2022-01-04T12:10:00Z,27.3620,-90.1810,47.2,15.3,11111222
Anadarko,ioos:station:wmo:42379:1,2022-01-04T12:30:00Z,27.3620,-90.1810,47.2,15.3,11111222
Anadarko,ioos:station:wmo:42379:1,2022-01-04T12:50:00Z,27.3620,-90.1810,47.2,15.3,11111222
Anadarko,ioos:station:wmo:42379:1,2022-01-04T13:10:00Z,27.3620,-90.1810,47.2,15.4,11111222
Anadarko,ioos:station:wmo:42379:1,2022-01-04T13:30:00Z,27.3620,-90.1810,47.2,15.4,11111222